Zurück zum Katalog

STARLINK-4395

AktivKommunikationSSO
NORAD 53199·PAYLOAD·🇺🇸 United States

Gestartet Jul 22, 2022 von Vandenberg Space Force Base

Loading…

Nächste Überflüge (nächste 24 Stunden)

TLE

AktuellSource: CelesTrak SupGP

Epoche: Sep 14, 2026, 22:19 UTC

1 53199C 22084L   26257.93034722  .00004161  00000+0  12928-3 0  2578
2 53199  97.2844 313.6466 0001554  91.7284  91.8219 15.33412579    19

Verfolge STARLINK-4395 in Echtzeit mit AllMySat

Download on the App Store